Douglas, WY

3:20 AM MST on December 17, 2017 (GMT -0700)
Converse County

Weather History for KDGW - November, 2013

Change the Weather History Date:

Sunday, November 3, 2013

  Actual Average Record
Temperature  
Mean Temperature 42 °F 39 °F  
Max Temperature 57 °F 54 °F 74 °F (2015)
Min Temperature 27 °F 25 °F -1 °F (2011)
Degree Days  
Heating Degree Days 23 26  
Month to date heating degree days 74 76  
Since 1 July heating degree days 892 943  
Cooling Degree Days 0 0  
Month to date cooling degree days 0 0  
Year to date cooling degree days 739 486  
Moisture  
Dew Point 27 °F    
Average Humidity 54    
Maximum Humidity 85    
Minimum Humidity 22    
Precipitation  
Precipitation T in 0.04 in 0.11 in (2003)
Month to date precipitation T 0.10  
Year to date precipitation 7.31 12.44  
Sea Level Pressure  
Sea Level Pressure 29.69 in    
Wind  
Wind Speed 9 mph (NNW)    
Max Wind Speed 26 mph    
Max Gust Speed 35 mph    
Visibility 8 miles    
Events Fog , Rain , Snow    
T = Trace of Precipitation, MM = Missing Value Source: NWS Daily Summary

Daily Weather History Graph

Daily Weather History Graph

Search for Another Location

Airport or City:

Trip Planner

Search our weather history database for the weather conditions in past years. The results will help you decide how hot, cold, wet, or windy it might be!

Date:

Astronomy

Nov. 03, 2013 Rise Set
Actual Time 6:38 AM MST 4:51 PM MST
Civil Twilight 6:08 AM MST 5:20 PM MST
Nautical Twilight 5:35 AM MST 5:54 PM MST
Astronomical Twilight 5:02 AM MST 6:27 PM MST
Moon 6:45 AM MST (11/3) 5:07 PM MST (11/3)
Length of Visible Light 11h 11m
Length of Day
10h 12m
New Moon, 0% of the Moon is Illuminated
Nov 3
New Moon
Nov 9
First Quarter
Nov 17
Full
Nov 25
Last Quarter
Dec 2
New

Hourly Weather History & Observations

Time (MST) Temp. Windchill Dew Point Humidity Pressure Visibility Wind Dir Wind Speed Gust Speed Precip Events Conditions
12:53 AM 48.9 °F - 18.0 °F 29% 29.60 in 10.0 mi Variable 3.5 mph - N/A   Clear
1:53 AM 51.1 °F - 18.0 °F 27% 29.57 in 10.0 mi Calm Calm - N/A   Clear
1:53 AM 50.0 °F - 19.9 °F 31% 29.55 in 10.0 mi Variable 3.5 mph - N/A   Clear
2:53 AM 51.1 °F - 19.9 °F 29% 29.53 in 10.0 mi West 11.5 mph - N/A   Clear
3:53 AM 53.1 °F - 19.0 °F 26% 29.55 in 10.0 mi Calm Calm - N/A   Clear
4:53 AM 55.0 °F - 18.0 °F 23% 29.53 in 10.0 mi West 10.4 mph 28.8 mph N/A   Clear
5:53 AM 50.0 °F - 19.9 °F 31% 29.56 in 10.0 mi West 9.2 mph - N/A   Clear
6:53 AM 50.0 °F - 19.9 °F 31% 29.55 in 10.0 mi Calm Calm - N/A   Clear
7:53 AM 51.1 °F - 21.9 °F 32% 29.55 in 10.0 mi WSW 10.4 mph - N/A   Clear
8:53 AM 52.0 °F - 24.1 °F 34% 29.54 in 10.0 mi WSW 10.4 mph - N/A   Clear
9:53 AM 57.0 °F - 24.1 °F 28% 29.53 in 10.0 mi NW 9.2 mph - N/A   Clear
10:53 AM 57.0 °F - 25.0 °F 29% 29.52 in 10.0 mi North 12.7 mph 18.4 mph N/A   Overcast
11:13 AM 48.2 °F - 28.4 °F 46% 29.63 in 10.0 mi North 13.8 mph 20.7 mph N/A   Overcast
11:53 AM 50.0 °F - 30.0 °F 46% 29.56 in 10.0 mi North 11.5 mph - N/A   Overcast
12:53 PM 53.1 °F - 28.0 °F 38% 29.54 in 10.0 mi NNW 13.8 mph - N/A   Overcast
1:11 PM 51.8 °F - 28.4 °F 41% 29.63 in 10.0 mi WNW 26.5 mph 32.2 mph N/A   Overcast
1:53 PM 51.1 °F - 28.9 °F 43% 29.58 in 10.0 mi NW 13.8 mph 23.0 mph N/A   Overcast
2:53 PM 48.0 °F - 28.9 °F 48% 29.60 in 10.0 mi NNW 13.8 mph - N/A   Partly Cloudy
3:53 PM 43.0 °F 37.7 °F 32.0 °F 65% 29.65 in 10.0 mi NNW 9.2 mph - 0.00 in Rain Light Rain
4:53 PM 41.0 °F 36.4 °F 30.9 °F 67% 29.65 in 10.0 mi NW 6.9 mph - 0.00 in   Overcast
5:53 PM 37.9 °F 30.9 °F 28.9 °F 70% 29.71 in 10.0 mi North 10.4 mph - N/A   Mostly Cloudy
6:53 PM 37.0 °F 29.8 °F 28.9 °F 73% 29.75 in 10.0 mi North 10.4 mph - N/A   Overcast
7:00 PM 37.4 °F 32.1 °F 28.4 °F 70% 29.79 in 10.0 mi NW 6.9 mph - 0.00 in Snow Light Snow
7:29 PM 35.6 °F 26.6 °F 30.2 °F 81% 29.80 in 2.5 mi NW 13.8 mph 18.4 mph 0.00 in Snow Light Snow
7:31 PM 33.8 °F 24.3 °F 30.2 °F 87% 29.80 in 1.8 mi NNW 13.8 mph 18.4 mph 0.00 in Snow Light Snow
7:35 PM 33.8 °F 25.8 °F 30.2 °F 87% 29.81 in 1.0 mi NNW 10.4 mph 18.4 mph 0.00 in Snow Light Snow
7:39 PM 32.0 °F 24.2 °F 30.2 °F 93% 29.80 in 0.8 mi NNW 9.2 mph - 0.00 in Snow Light Snow
7:49 PM 32.0 °F 24.2 °F 30.2 °F 93% 29.79 in 1.2 mi North 9.2 mph - 0.00 in Snow Light Snow
7:50 PM 32.0 °F 23.6 °F 30.9 °F 96% 29.78 in 1.5 mi NNE 10.4 mph - 0.00 in Snow Light Snow
7:56 PM 32.0 °F 24.2 °F 30.2 °F 93% 29.79 in 3.0 mi NE 9.2 mph - 0.00 in Snow Light Snow
8:11 PM 32.0 °F 23.6 °F 30.2 °F 93% 29.80 in 9.0 mi NE 10.4 mph - 0.00 in   Overcast
8:22 PM 33.8 °F 28.6 °F 30.2 °F 87% 29.82 in 10.0 mi NE 5.8 mph - 0.00 in   Overcast
8:53 PM 33.1 °F 30.0 °F 28.9 °F 85% 29.82 in 10.0 mi NNW 3.5 mph - 0.00 in   Overcast
9:13 PM 32.0 °F 25.6 °F 28.4 °F 87% 29.84 in 10.0 mi NNW 6.9 mph - N/A   Overcast
9:53 PM 30.9 °F 22.2 °F 27.0 °F 85% 29.83 in 10.0 mi North 10.4 mph - 0.00 in   Mostly Cloudy
10:18 PM 30.2 °F 21.3 °F 26.6 °F 86% 29.88 in 7.0 mi NW 10.4 mph - 0.00 in Snow Light Snow
10:29 PM 30.2 °F 19.8 °F 26.6 °F 86% 29.89 in 1.8 mi NW 13.8 mph 18.4 mph 0.00 in Snow Light Snow
10:34 PM 30.2 °F 21.3 °F 26.6 °F 86% 29.89 in 0.8 mi NW 10.4 mph - 0.00 in Snow Light Snow
10:49 PM 30.2 °F 20.8 °F 28.4 °F 93% 29.90 in 0.5 mi NW 11.5 mph - 0.00 in Fog , Snow Snow
10:53 PM 28.9 °F 20.4 °F 27.0 °F 92% 29.88 in 0.5 mi NW 9.2 mph 19.6 mph 0.00 in Fog , Snow Snow